Курессааре

Эстония     58°14′56″N   22°29′24″E
темп.,
°C
ветер,
м/с
пор.,
м/с
влажн.,
%
обл.,
%
осадки,
мм/ч
давл.,
гПа
погр.,
м
20 апреля, вт
вт2000:00+7св356710 0.0 102365
03:00+5св357937 0.0 102269
06:00+5св3473100 0.0 102052
09:00+7всв356868 0.0 1019154
12:00+8в4558100 0.0 1018401
15:00+9вюв3454100 0.0 1016725
18:00+9вюв2255100 0.0 1014323
21:00+8ссв1165100 0.0 101322
21 апреля, ср
ср2100:00+7всв226796 0.0 101210
03:00+6ю007122 0.0 101010
06:00+5зсз2272100 0.0 100814
09:00+7з1266100 0.0 1007130
12:00+8ююз44605 0.0 1006687
15:00+9юз56585 0.0 1005571
18:00+8юз575998 0.0 1003376
21:00+5юз498497 0.0 1003195
22 апреля, чт
чт2200:00+5ююз6119194 0.0 1002304
03:00+4юз7128644 0.0 1001376
06:00+4юз8138549 0.0 1001467
09:00+4ю710795 0.0 1002705
12:00+5ююв81174100 0.1 1001875
15:00+4ююз5883100 0.8 1002782
18:00+4ююз8128883 0.7 1002817
21:00+4ю610857 0.8 1002509
23 апреля, пт
пт2300:00+3ю71097100 0.2 1002735
03:00+3ююз679490 0.6 1002578
06:00+2ююв3599100 0.7 1001347
09:00+2зсз3494100 1.1 1002379
12:00+4ссз247490 0.2 1003752
15:00+5зсз3470100 0.4 1005634
18:00+5сз577390 0.2 1007586
21:00+4сз477494 0.3 1009600
24 апреля, сб
сб2400:00+3сз4788100 0.1 1009554
03:00+2сз5995100 0.2 1009598
06:00+2сз51297100 0.9 1009641
09:00+2сз61196100 1.9 1010853
12:00+4сз7972100 0.4 10101212
15:00+4з7978100 0.7 10101053
18:00+4ссз577394 0.4 1009781
21:00+3ссз71296100 0.6 1010900